Dewpoint
70 70 71 73 72 72 72 72 72 71 70 70 70 70 70 70 70 70 70 71 71 71 71 71 71 71 71 71 71 72 72 72 72 72 72 72 72 72 71 71 71 71 71 71 71 71 71 71 71 71 70 71 70 70 70 70 70 70 69 69 68 68 67 67 67 67 67 67 63 62 63 63 66 66 65 65 66 65 64 64 63 61 62 63 64
70 70 71 71 73 72 72 72 72 71 71 71 70 70 70 70 70 70 71 71 71 71 71 71 71 72 72 72 72 72 72 72 72 72 72 72 72 72 71 71 71 71 71 71 71 71 71 70 71 70 70 70 70 70 70 70 70 69 69 69 68 67 67 66 63 62 61 62 63 63 64 65 64 64 65 65 64 64 64 64 63 61 61 64 65
70 71 71 70 72 72 72 72 71 71 70 70 69 70 70 70 70 71 71 71 71 71 71 71 72 72 72 72 72 72 72 72 72 72 72 72 72 72 71 71 71 71 71 72 71 71 71 71 71 71 70 70 70 70 69 68 68 68 69 68 67 67 67 67 66 66 66 66 66 65 65 66 66 66 66 63 63 63 64 64 63 63 61 63 63
70 71 70 71 72 72 72 72 72 71 71 71 70 70 70 70 71 71 71 71 72 72 72 72 72 72 72 72 72 72 72 72 72 72 72 72 72 72 71 71 71 71 71 71 71 71 71 71 70 71 70 71 70 69 68 67 67 68 68 67 66 65 64 64 65 65 65 65 65 62 62 62 63 64 63 63 63 63 64 65 65 65 65 64 65
70 70 70 70 70 72 72 72 72 71 71 70 70 70 70 70 71 71 71 72 72 72 72 72 72 72 72 72 72 72 72 72 72 72 72 72 72 71 71 71 71 71 71 71 71 71 71 71 70 70 71 70 71 70 69 69 68 67 67 67 66 66 66 66 65 65 65 65 64 62 60 60 60 61 64 66 66 64 64 64 65 65 65 66 66
70 70 70 70 69 71 72 72 71 71 70 69 70 70 70 70 70 71 71 71 72 72 72 72 72 72 72 72 72 72 72 72 72 72 72 72 72 71 71 71 71 71 71 70 71 71 71 70 71 71 70 70 71 70 70 69 69 68 67 67 67 67 66 66 65 65 65 64 62 60 59 59 58 62 65 65 64 64 65 65 65 65 65 65 65
71 70 70 69 70 71 72 72 71 71 71 71 70 71 71 70 70 71 71 72 72 72 73 73 73 72 72 72 72 72 72 72 72 72 72 71 71 72 71 71 71 71 70 71 70 70 70 69 70 71 70 70 70 70 69 69 69 69 67 65 66 66 66 66 66 66 65 64 63 61 61 59 60 59 63 66 65 63 63 64 64 63 64 63 62
70 70 70 68 70 71 72 71 72 71 71 70 70 70 69 71 70 71 71 72 72 72 72 72 72 72 72 73 72 72 72 72 72 72 72 72 71 71 71 71 71 71 70 70 70 70 70 69 71 70 69 69 69 69 68 68 68 68 68 66 65 66 67 67 68 68 66 62 64 64 63 62 62 62 66 65 64 65 63 63 63 63 64 63 63
70 70 69 69 70 72 72 71 71 71 70 70 70 69 69 70 70 70 71 71 71 72 72 72 72 72 72 72 72 72 72 72 72 72 72 72 71 71 71 71 71 71 70 70 70 70 70 71 70 69 69 69 68 68 68 68 68 68 69 68 67 66 67 69 68 68 65 64 64 64 64 65 65 65 66 64 63 65 67 66 67 67 67 67 67
70 69 69 69 70 72 72 71 71 71 70 70 70 70 70 70 71 70 71 71 71 72 72 72 72 72 72 72 72 72 72 72 72 72 72 72 72 71 71 71 70 70 71 70 71 70 70 70 69 69 69 68 68 69 69 69 68 68 69 68 69 67 69 69 67 65 63 63 63 64 67 66 62 62 63 62 62 66 67 66 66 65 65 65 65
70 69 69 69 69 72 72 72 71 71 71 71 70 70 70 70 70 70 71 71 71 72 72 72 72 72 72 72 72 72 72 72 72 72 72 71 71 71 71 71 71 71 71 71 70 70 70 70 69 69 68 68 68 69 70 70 70 69 69 70 68 68 69 68 66 63 63 62 65 66 67 67 65 65 65 64 63 64 64 64 64 64 64 64 65
70 70 70 70 73 72 72 72 71 71 70 70 70 70 70 70 70 70 71 72 72 72 72 72 72 72 72 72 72 72 72 72 71 71 71 71 71 71 71 71 70 70 70 70 70 70 69 69 69 69 68 68 68 70 70 70 71 71 70 70 69 69 69 67 63 63 63 62 63 65 63 63 63 63 64 63 62 63 63 62 62 63 62 63 63
69 68 69 71 71 73 72 71 71 71 70 70 70 70 70 70 70 70 72 72 72 72 72 72 72 72 72 72 72 72 71 71 71 71 71 71 71 71 71 70 70 70 70 69 69 69 69 69 69 69 68 67 68 70 70 70 69 69 70 70 69 69 68 67 62 62 62 62 62 64 63 65 66 65 64 63 64 63 63 65 64 62 63 64 63
69 68 70 70 71 72 72 72 71 71 70 70 71 71 70 70 70 71 72 72 72 72 72 72 72 72 72 72 71 71 71 71 71 70 70 70 71 70 70 70 70 70 70 69 69 69 69 69 68 68 69 68 68 70 70 70 69 69 69 69 69 68 68 66 66 63 63 63 64 61 63 65 64 66 64 63 63 62 64 63 62 62 63 64 63
69 70 70 70 71 71 72 72 71 71 71 71 71 70 70 70 71 72 72 72 72 72 72 72 72 72 72 72 71 71 71 70 70 69 69 69 69 70 70 69 69 69 69 69 69 69 69 68 68 68 68 68 68 69 69 69 69 69 69 69 68 68 67 62 62 62 62 61 62 61 61 63 67 67 65 64 64 63 62 63 62 63 64 63 63
69 70 70 70 70 70 70 71 71 71 71 71 70 70 70 70 71 70 71 71 72 72 72 72 72 72 72 71 71 71 70 70 70 70 70 70 69 69 69 69 69 69 69 69 70 69 69 68 68 68 68 68 68 69 69 69 69 69 69 69 68 68 67 64 63 62 62 62 62 62 62 63 66 65 65 63 62 61 60 63 63 63 62 63 63
70 70 70 70 70 70 69 70 70 70 70 70 70 70 70 70 71 70 71 71 71 72 72 72 72 72 72 71 71 71 70 70 70 70 69 70 70 69 69 70 70 69 69 70 69 69 69 68 68 68 68 67 68 69 69 69 69 69 69 68 68 68 67 65 61 63 62 61 60 61 63 61 64 66 63 61 61 62 63 63 62 62 63 63 61
70 69 69 69 70 69 69 70 70 70 70 69 69 70 70 70 71 70 71 71 72 72 72 72 72 72 72 71 71 71 71 70 70 70 70 70 70 69 69 69 69 69 70 70 69 69 68 68 68 68 68 67 68 69 70 69 69 69 69 68 68 68 68 66 63 63 62 63 60 62 62 66 66 64 61 63 63 63 62 59 63 63 62 63 62
69 69 69 69 68 68 69 69 70 69 69 69 69 69 69 70 70 70 70 71 71 72 72 72 72 71 71 71 71 71 71 71 70 70 70 70 69 69 69 69 69 68 68 69 68 68 68 68 68 68 68 67 68 69 70 70 69 69 69 69 68 68 67 65 62 61 62 63 62 62 63 66 66 63 62 63 61 62 62 62 64 64 64 62 60
68 69 70 70 69 68 69 69 69 69 69 69 69 69 69 69 69 70 70 70 71 71 71 71 71 71 71 71 71 71 70 70 71 69 70 70 70 69 69 69 69 69 69 69 68 69 68 68 68 68 67 68 68 69 70 70 69 69 69 69 68 68 65 63 62 61 61 61 63 62 64 64 62 62 63 61 60 63 64 65 64 63 62 61 60
68 68 69 69 69 69 69 69 69 69 68 69 69 68 68 69 69 70 69 70 70 70 71 71 70 71 71 71 71 70 70 70 70 69 69 69 70 69 68 68 69 69 69 68 69 69 69 69 68 68 66 66 68 69 69 69 69 69 69 69 68 66 65 64 63 62 62 61 62 59 63 63 63 64 63 63 63 62 63 61 62 61 62 60 58
67 68 69 69 69 69 69 68 68 68 68 68 69 68 68 69 69 69 70 70 69 70 70 70 70 70 71 70 70 69 69 69 69 69 69 69 68 70 69 69 69 69 69 69 70 69 69 68 68 67 67 67 65 67 68 69 69 69 68 68 67 64 65 65 64 62 62 63 62 62 63 63 63 63 62 61 61 61 61 61 61 61 60 59 59
67 68 68 69 69 69 68 68 68 68 68 68 69 69 69 69 69 69 69 70 70 70 70 69 69 69 69 68 69 69 69 69 69 69 69 69 69 70 70 69 70 69 70 70 70 69 69 69 68 67 66 66 65 65 66 66 67 68 68 67 65 65 65 65 64 64 62 62 61 64 64 64 63 62 62 62 61 61 60 59 62 60 61 60 59
66 68 67 68 68 68 68 68 67 67 68 68 69 69 69 69 68 69 69 69 70 69 69 69 69 69 69 69 70 68 69 70 69 70 69 69 69 70 70 70 70 69 69 68 68 68 68 68 68 67 66 65 64 63 63 65 66 67 68 66 64 64 65 65 63 63 63 61 59 65 65 64 64 63 62 61 61 61 60 61 61 60 61 60 60
68 68 68 67 68 68 68 68 67 68 68 69 69 69 70 70 69 69 69 69 69 69 69 69 69 69 69 69 69 69 69 69 70 70 69 69 68 68 68 68 68 67 67 67 66 66 68 67 67 66 66 66 63 64 64 65 66 66 65 65 65 65 64 64 63 62 63 63 62 65 65 65 64 63 63 62 61 61 61 60 59 61 60 61 60
67 65 67 67 67 67 67 68 68 67 68 69 68 69 69 69 69 70 69 69 68 69 69 69 69 69 69 68 69 69 69 69 69 69 69 69 69 68 68 68 68 67 66 67 66 66 67 66 67 67 66 67 66 64 63 63 63 64 63 64 64 65 64 64 63 63 64 63 63 65 66 65 64 64 63 63 62 61 61 62 61 60 60 60 60
65 65 66 67 67 67 68 68 67 68 68 69 69 69 69 69 69 69 68 68 69 68 68 69 69 69 69 69 69 69 69 71 71 69 69 68 68 68 68 68 68 67 67 66 67 67 66 66 66 67 67 66 65 64 63 63 64 62 63 62 63 63 64 63 63 63 63 63 64 65 66 65 65 64 64 63 63 62 61 61 60 60 60 61 61
64 65 67 67 66 67 67 68 67 68 68 69 69 69 69 69 69 69 68 69 69 69 69 69 69 70 69 70 69 70 69 69 68 68 69 69 69 68 68 67 67 68 67 67 67 66 65 66 67 65 64 64 64 66 65 64 65 65 64 64 64 65 65 63 64 64 64 64 63 65 66 66 66 64 64 64 63 62 61 61 61 61 61 60 60
64 65 66 67 67 67 67 67 67 67 68 68 68 69 70 69 69 69 68 69 68 68 69 69 69 69 69 69 69 69 69 68 68 68 68 68 69 68 68 68 67 67 67 67 67 67 66 65 66 63 63 63 63 65 64 65 66 66 65 64 65 65 65 65 64 64 63 63 64 63 65 66 66 66 65 64 64 62 62 62 61 62 61 60 60
63 65 65 66 66 67 67 67 67 68 68 68 68 68 68 67 68 68 69 68 68 69 69 68 68 68 69 69 69 69 69 68 68 68 68 68 68 69 69 68 67 67 67 67 67 67 66 65 65 63 59 61 61 63 64 63 63 65 64 64 65 65 65 65 64 63 63 64 64 64 65 66 67 66 66 65 64 62 61 61 61 61 61 60 60
65 65 65 66 67 67 67 67 68 68 68 67 68 67 67 67 67 68 69 68 69 69 69 69 69 69 69 69 69 69 69 69 68 68 68 68 68 68 68 68 68 68 68 67 68 67 67 66 66 65 63 62 63 62 62 62 62 61 64 62 65 65 65 65 64 64 64 64 64 64 62 65 66 66 66 66 65 63 62 62 61 62 62 61 61
65 64 65 67 67 67 67 68 68 68 68 67 68 67 67 67 68 68 69 69 69 69 69 69 69 69 68 69 69 69 69 69 68 68 68 68 68 68 68 68 69 69 68 68 67 68 67 65 66 66 67 67 66 65 65 63 62 60 62 65 65 65 64 65 65 65 64 64 64 64 64 63 66 66 66 66 66 66 63 63 62 60 62 62 62
66 65 66 66 67 68 68 68 68 69 68 68 67 67 67 68 68 68 69 69 69 69 69 69 69 69 69 69 69 69 68 68 68 68 67 67 67 68 68 68 69 69 69 68 68 68 67 66 66 66 67 67 67 67 64 65 63 63 64 64 64 63 64 65 65 65 65 64 64 63 64 63 64 66 66 66 66 66 65 64 62 61 62 63 62
66 66 67 66 67 68 68 68 68 68 68 68 68 67 68 68 68 68 69 69 70 70 70 69 69 69 69 68 69 68 68 69 67 68 67 67 67 66 67 68 69 68 69 68 68 68 67 67 66 65 65 66 66 66 66 64 63 63 65 65 66 65 65 63 63 64 65 65 64 65 64 63 62 63 63 66 66 66 66 65 63 63 62 62 62
67 67 67 67 67 68 68 68 68 68 68 68 67 67 68 67 67 68 68 69 69 69 69 69 69 68 68 69 68 68 68 67 67 67 67 67 66 66 66 67 67 68 68 69 68 68 67 67 66 65 66 66 66 66 65 65 65 65 66 67 66 66 66 65 65 65 63 65 65 65 64 63 63 63 63 63 65 67 66 66 64 63 63 63 62
67 67 67 67 67 68 68 68 68 68 68 68 68 68 68 68 68 68 69 69 69 68 68 68 67 68 68 68 67 67 67 67 67 67 66 66 66 66 66 67 67 68 69 68 68 67 67 66 66 66 65 65 65 66 66 65 65 65 65 66 66 66 65 65 66 65 64 65 64 65 65 64 65 64 64 63 64 64 66 66 65 65 64 64 62
68 67 66 68 68 68 68 68 68 68 67 68 68 68 68 68 69 69 68 69 68 68 68 68 67 67 68 68 67 67 67 67 66 66 68 67 66 66 66 67 67 67 68 68 68 67 66 66 66 66 66 65 64 64 66 66 65 65 66 66 66 65 66 65 66 66 66 66 65 65 65 65 65 65 66 65 66 66 66 66 65 65 65 65 65
68 67 68 68 68 68 69 68 68 68 68 68 68 68 68 69 69 68 68 67 67 67 68 68 67 68 68 68 67 67 67 66 66 66 68 67 67 67 67 67 67 68 68 68 67 67 67 66 65 66 65 65 65 64 64 65 65 64 65 65 65 66 65 65 65 66 65 65 65 65 65 66 66 66 66 66 65 66 65 64 65 66 65 64 65
68 68 68 68 68 68 68 68 68 69 69 69 69 69 69 69 68 68 67 67 67 67 68 67 67 67 67 66 66 67 67 66 66 66 66 66 66 66 66 67 67 68 67 66 66 66 66 66 65 65 66 65 65 65 64 64 64 63 63 64 65 65 65 65 65 65 64 65 65 65 66 65 66 65 65 65 64 65 64 64 63 63 62 65 65
67 67 67 67 67 68 68 68 69 70 69 68 68 67 67 67 67 67 67 67 67 67 66 67 67 67 67 67 66 66 66 67 66 66 67 67 67 66 66 66 66 66 66 65 66 66 65 65 65 65 65 65 65 64 64 64 63 63 63 63 64 64 65 65 65 65 65 65 65 64 64 63 64 65 65 64 64 65 64 65 65 62 61 62 64
66 66 66 66 67 67 67 67 68 68 68 67 67 67 67 66 66 66 66 66 65 65 65 66 66 66 66 66 66 66 66 66 66 67 66 66 66 66 66 66 65 65 66 65 65 65 65 65 65 65 64 63 63 63 64 64 63 62 62 63 63 65 65 65 64 65 65 64 65 64 64 64 64 64 64 64 64 64 64 63 62 62 61 61 63
64 64 64 64 65 66 66 66 67 67 67 68 67 67 67 66 66 65 65 65 65 65 64 65 66 66 65 65 65 65 66 66 65 65 65 65 65 65 65 65 65 64 65 64 64 64 63 63 64 63 63 63 63 63 63 63 61 61 59 60 61 62 64 64 63 64 64 64 65 65 64 64 64 64 64 63 64 64 63 63 62 62 62 62 61
62 62 63 63 64 65 65 65 66 66 67 67 66 66 67 67 66 65 65 64 65 65 64 64 64 64 65 65 65 65 65 65 65 65 65 65 65 65 64 65 64 64 64 64 64 64 64 64 63 63 62 63 63 63 64 64 61 63 63 61 58 57 60 62 63 63 63 64 64 64 64 64 63 64 63 63 62 63 63 63 63 63 63 63 61
61 62 62 62 62 62 63 64 64 65 66 66 66 67 66 66 66 65 65 64 63 63 63 63 63 63 63 63 63 64 63 64 64 64 64 65 65 65 65 65 65 65 64 63 63 62 64 64 64 63 63 61 61 61 64 64 64 62 58 58 58 58 55 56 59 60 63 63 64 63 64 63 63 64 64 63 62 62 62 63 64 66 64 63 62
61 61 61 61 61 61 62 63 63 64 65 65 66 66 65 65 64 64 64 64 64 63 61 61 62 62 62 62 62 62 62 62 63 63 63 64 64 65 65 65 65 65 64 64 62 62 63 63 63 63 63 62 60 62 62 65 64 66 61 59 58 56 55 56 58 58 62 62 63 63 63 64 63 63 63 62 62 62 63 63 64 63 64 63 63
59 60 60 61 61 61 61 62 62 62 63 64 65 66 65 65 64 63 62 61 60 59 59 59 59 60 59 61 61 60 60 61 61 62 62 63 63 63 63 63 64 64 64 64 64 64 63 63 63 63 63 63 62 61 61 64 65 65 65 63 61 58 56 58 59 55 60 62 62 62 61 62 62 62 62 62 61 61 62 62 63 63 62 62 63
58 59 59 60 60 59 60 60 60 61 62 63 64 64 64 63 63 62 61 60 58 58 59 59 59 59 59 60 59 59 57 58 59 59 60 61 61 61 62 62 61 61 61 61 60 61 62 62 63 63 63 63 63 60 60 60 62 64 65 64 64 65 64 60 57 58 55 59 61 62 61 62 63 62 61 61 61 62 63 62 62 63 62 62 62
58 58 58 58 58 58 58 59 59 59 60 61 62 63 62 62 62 61 59 58 58 57 58 58 58 58 57 58 58 57 56 55 54 54 56 57 58 58 59 58 58 58 59 58 58 58 59 60 61 62 63 63 63 62 61 61 60 59 63 64 63 64 63 63 62 59 57 55 56 60 63 63 63 63 62 62 62 63 63 63 62 62 63 61 62
57 57 57 57 57 57 57 57 58 58 58 59 59 60 60 61 60 60 58 57 57 57 56 56 56 57 57 56 56 55 55 54 52 53 53 53 55 56 56 55 56 55 55 54 55 56 56 57 58 58 59 60 61 61 61 61 61 61 61 61 62 62 63 63 62 62 59 58 58 57 57 60 63 63 64 64 64 65 65 64 63 63 64 65 65
56 56 56 56 56 56 56 56 56 56 57 57 58 58 58 58 58 58 58 56 56 56 55 54 54 55 54 54 54 53 52 52 53 52 52 52 53 54 53 53 54 54 54 53 53 53 54 55 56 57 57 58 58 58 58 60 60 61 62 60 60 60 60 60 61 61 61 59 57 57 58 59 58 60 64 64 63 64 65 64 64 63 63 64 62
55 55 55 55 55 54 54 53 54 54 55 56 56 56 56 56 55 56 56 55 55 54 53 53 52 52 52 52 52 52 51 51 51 51 51 51 52 52 51 50 51 52 51 51 51 51 52 53 55 55 55 56 56 56 56 58 59 59 60 60 59 59 57 57 59 59 59 58 58 57 58 57 57 58 61 64 64 64 65 65 64 64 64 63 64